STARLINK-30148 (57617 NORAD) Tracking and Keplerian Element Data

This shows tracking and keplerian element data for the satellite.

Feedback or suggestion? Click here.




ElementValue
Catalog57617
NameSTARLINK-30148
Epoch Orbit376
Epoch Day239.16667824
Epoch Year2023
RAAN77.7456
Inclination43.001
Eccentricity4.57E-05
Argument of Perigee234.4766
Mean Anonmoly18.6941
Mean Motion15.74467589
Decay Rate-0.00903715
L11 57617U 23119R 23239.16667824 -.00903715 00000+0 -67109-2 0 9992
L22 57617 43.0010 77.7456 0000457 234.4766 18.6941 15.74467589 3761



Live tracking and technical data element details for STARLINK-30148 (NORAD 57617). STARLINK-30148 can be tracked NOW for your location showing map with azimuth and elevation plus other details from your city location.







IsCatalogInMostPopularTable: catalog: 57617, numindb: 6
Update: records affected: 1



GetName: 57617 STARLINK-30148

Hit Count: updated at: Tue, 26 Sep 2023 12:50:59 GMT